Regional Weather Roundup
Issued by NWS

Home | Current Version | Previous Version | Graphics & Text | Print | Product List | Glossary On
Versions: 1 2 3 4 5 6 7 8 9 10 11 12 13 14 15 16 17 18 19 20 21 22 23 24 25 26 27 28 29 30 31 32 33 34 35 36 37 38 39 40 41 42 43 44 45 46 47 48 49 50
000
ASUS43 KFSD 141710
RWRSD

WEATHER ROUNDUP FOR SOUTH DAKOTA
NATIONAL WEATHER SERVICE SIOUX FALLS SD
1100 AM CST SUN FEB 14 2016

NOTE: "FAIR" INDICATES FEW OR NO CLOUDS BELOW 12,000 FEET WITH NO
SIGNIFICANT WEATHER AND/OR OBSTRUCTIONS TO VISIBILITY.


SDZ001>005-009-010-012>017-141800-
NORTHWEST AND NORTH CENTRAL SOUTH DAKOTA

CITY           SKY/WX    TMP DP  RH WIND       PRES   REMARKS
BUFFALO          N/A     38  28  67 W17       29.70S
FAITH            N/A     37  26  64 W13       29.75F
MOBRIDGE       CLOUDY    30  28  92 CALM      29.73S
$$

SDZ012>016-024>037-041>051-057-063-072>074-141800-
SOUTHWEST AND SOUTH CENTRAL SOUTH DAKOTA

CITY           SKY/WX    TMP DP  RH WIND       PRES   REMARKS
RAPID CTY ARPT CLOUDY    38  28  67 CALM      29.80F
PIERRE         PTSUNNY   35  31  85 W9        29.78S WCI  28
CUSTER         CLOUDY    34  17  50 NW7       29.78F WCI  28
ELLSWORTH AFB  CLOUDY    38  28  66 W5        29.79F
PHILIP         CLOUDY    40  31  70 W5        29.80S
PINE RIDGE     CLOUDY    37  26  64 W3        29.84F
SPEARFISH      FAIR      37  23  56 W12G20    29.80R
WINNER         FAIR      40  31  70 NW10      29.80F
$$

SDZ004>011-016>023-039-040-141800-
NORTHEAST SOUTH DAKOTA

CITY           SKY/WX    TMP DP  RH WIND       PRES   REMARKS
ABERDEEN       CLOUDY    19  14  81 S13       29.80F WCI   6
WATERTOWN      CLOUDY    15   9  76 S14       29.79F WCI   0
BROOKINGS      LGT SNOW  16  11  80 S14       29.82S WCI   2
SISSETON         N/A     15  11  83 S14       29.83F WCI   0
$$

SDZ017-020-022-023-036>040-048>070-141800-
SOUTHEAST SOUTH DAKOTA

CITY           SKY/WX    TMP DP  RH WIND       PRES   REMARKS
SIOUX FALLS    CLOUDY    17  13  84 S9        29.84F WCI   6
HURON          CLOUDY    18  13  80 S8        29.83S WCI   8
CHAMBERLAIN    CLOUDY    35  32  88 NW6       29.79F WCI  30
MITCHELL       CLOUDY    19  15  84 S8        29.84F WCI   9
YANKTON        CLOUDY    21  16  79 E3        29.84F
$$

ABBREVIATIONS USED IN REMARKS
   TC - TEMPERATURE IN CELSIUS
  WCI - WIND CHILL INDEX
   HX - HEAT INDEX
  VSB - VISIBILITY




USA.gov is the U.S. government's official web portal to all federal, state and local government web resources and services.